Le nostre stazioni meteo in Italia

Pubblicità
Il mio iltempo24.it
Ustica, Italia (16400): Temperatura & dewpoint: 10.12.2017 17:00:00 - 16.12.2017 17:00:00 (CET)Ustica, Italia (16400): velocità del vento: 10.12.2017 17:00:00 - 16.12.2017 17:00:00 (CET)Ustica, Italia (16400): direzione del vento: 10.12.2017 17:00:00 - 16.12.2017 17:00:00 (CET)Ustica, Italia (16400): reduced air pressure: 10.12.2017 17:00:00 - 16.12.2017 17:00:00 (CET)Ustica, Italia (16400): visibility: 10.12.2017 17:00:00 - 16.12.2017 17:00:00 (CET)Ustica, Italia (16400): ore di luce: 10.12.2017 17:00:00 - 16.12.2017 17:00:00 (CET)
Data & Tempo tt [°C] td [°C] ff [km/h] ff [kn] dd ppp [hPa] vv [km] sd [min]
16.12.2017 17:00:00 11,2 9,6 15 8 ONO 1011,0 10 0
16.12.2017 16:00:00 12,4 11,0 15 8 ONO 1010,5 10 0
16.12.2017 15:00:00 12,0 11,1 22 12 NO 1009,9 10 0
16.12.2017 14:00:00 12,4 9,2 9 5 O 1009,8 10 0
16.12.2017 13:00:00 12,6 9,4 35 19 NO 1009,8 10 0
16.12.2017 12:00:00 - - - - - - - -
16.12.2017 11:00:00 13,0 8,9 37 20 NNO 1009,4 10 0
16.12.2017 10:00:00 12,6 10,3 18 10 NO 1008,9 20 0
16.12.2017 09:00:00 12,6 10,2 11 6 O 1008,8 10 0
16.12.2017 08:00:00 - - - - - - - -
16.12.2017 07:00:00 - - - - - - - -
16.12.2017 06:00:00 - - - - - - - -
16.12.2017 05:00:00 - - - - - - - -
16.12.2017 04:00:00 - - - - - - - -
16.12.2017 03:00:00 - - - - - - - -
16.12.2017 02:00:00 - - - - - - - -
16.12.2017 01:00:00 - - - - - - - -
16.12.2017 00:00:00 - - - - - - - -
15.12.2017 23:00:00 - - - - - - - -
15.12.2017 22:00:00 - - - - - - - -
15.12.2017 21:00:00 - - - - - - - -
15.12.2017 20:00:00 - - - - - - - -
15.12.2017 19:00:00 - - - - - - - -
15.12.2017 18:00:00 - - - - - - - -
15.12.2017 17:00:00 - - - - - - - -
15.12.2017 16:00:00 15,4 13,8 50 27 S 1007,6 20 60
15.12.2017 15:00:00 16,0 14,1 31 17 SSO 1008,4 20 60
15.12.2017 14:00:00 16,0 12,4 37 20 S 1008,4 20 36
15.12.2017 13:00:00 15,2 12,9 41 22 S 1010,5 20 36
15.12.2017 12:00:00 15,4 13,1 50 27 S 1011,5 20 48
15.12.2017 11:00:00 15,6 13,0 42 23 SSO 1012,7 20 60
15.12.2017 10:00:00 14,4 12,1 34 18 S 1013,2 25 60
15.12.2017 09:00:00 14,0 12,3 26 14 S 1013,2 25 60
15.12.2017 08:00:00 13,6 11,9 29 16 SSO 1013,8 25 36
15.12.2017 07:00:00 13,4 11,7 37 20 S 1013,8 25 0
15.12.2017 06:00:00 - - - - - - - -
15.12.2017 05:00:00 - - - - - - - -
15.12.2017 04:00:00 - - - - - - - -
15.12.2017 03:00:00 - - - - - - - -
15.12.2017 02:00:00 - - - - - - - -
15.12.2017 01:00:00 - - - - - - - -
15.12.2017 00:00:00 - - - - - - - -
14.12.2017 23:00:00 - - - - - - - -
14.12.2017 22:00:00 - - - - - - - -
14.12.2017 21:00:00 - - - - - - - -
14.12.2017 20:00:00 - - - - - - - -
14.12.2017 19:00:00 - - - - - - - -
14.12.2017 18:00:00 13,8 12,8 31 17 SSO 1018,9 18 0
14.12.2017 17:00:00 13,8 12,5 34 18 SO 1019,1 18 0
14.12.2017 16:00:00 14,0 12,7 41 22 SO 1019,4 18 30
14.12.2017 15:00:00 14,0 12,3 42 23 SSO 1019,4 18 24
14.12.2017 14:00:00 14,0 11,7 31 17 SO 1020,0 20 24
14.12.2017 13:00:00 14,2 12,2 37 20 SO 1020,9 20 36
14.12.2017 12:00:00 14,6 12,6 35 19 SO 1020,8 20 48
14.12.2017 11:00:00 14,2 12,2 28 15 SO 1021,8 20 30
14.12.2017 10:00:00 13,6 11,6 34 18 SSO 1022,0 20 18
14.12.2017 09:00:00 12,8 10,7 28 15 SO 1022,0 20 24
14.12.2017 08:00:00 12,2 10,1 24 13 O 1022,1 20 12
14.12.2017 07:00:00 12,0 9,9 22 12 OSO 1022,2 20 0
14.12.2017 06:00:00 - - - - - - - -
14.12.2017 05:00:00 - - - - - - - -
14.12.2017 04:00:00 - - - - - - - -
14.12.2017 03:00:00 - - - - - - - -
14.12.2017 02:00:00 - - - - - - - -
14.12.2017 01:00:00 - - - - - - - -
14.12.2017 00:00:00 - - - - - - - -
13.12.2017 23:00:00 - - - - - - - -
13.12.2017 22:00:00 - - - - - - - -
13.12.2017 21:00:00 - - - - - - - -
13.12.2017 20:00:00 - - - - - - - -
13.12.2017 19:00:00 13,6 11,9 39 21 SO 1022,5 18 0
13.12.2017 18:00:00 13,8 12,1 37 20 SO 1022,5 18 0
13.12.2017 17:00:00 14,0 12,3 15 8 SO 1021,9 18 0
13.12.2017 16:00:00 14,0 12,0 29 16 O 1021,3 18 0
13.12.2017 15:00:00 14,0 12,3 34 18 SO 1021,9 18 0
13.12.2017 14:00:00 14,2 12,5 26 14 SO 1022,1 18 0
13.12.2017 13:00:00 15,2 12,6 22 12 SO 1022,4 18 36
13.12.2017 12:00:00 15,0 13,0 22 12 OSO 1022,8 18 30
13.12.2017 11:00:00 15,0 13,4 11 6 SO 1022,7 18 0
13.12.2017 10:00:00 15,2 14,2 22 12 SO 1021,8 18 0
13.12.2017 09:00:00 14,8 13,8 35 19 SO 1021,7 18 18
13.12.2017 08:00:00 14,6 13,6 34 18 SSO 1021,0 18 12
13.12.2017 07:00:00 14,6 13,6 34 18 SSO 1020,6 18 0
13.12.2017 06:00:00 - - - - - - - -
13.12.2017 05:00:00 - - - - - - - -
13.12.2017 04:00:00 - - - - - - - -
13.12.2017 03:00:00 - - - - - - - -
13.12.2017 02:00:00 - - - - - - - -
13.12.2017 01:00:00 - - - - - - - -
13.12.2017 00:00:00 - - - - - - - -
12.12.2017 23:00:00 - - - - - - - -
12.12.2017 22:00:00 - - - - - - - -
12.12.2017 21:00:00 - - - - - - - -
12.12.2017 20:00:00 - - - - - - - -
12.12.2017 19:00:00 15,0 13,7 28 15 S 1017,7 20 0
12.12.2017 18:00:00 15,2 12,6 29 16 S 1017,7 20 0
12.12.2017 17:00:00 15,8 11,8 34 18 S 1017,0 20 6
12.12.2017 16:00:00 16,0 13,1 35 19 S 1016,6 20 30
12.12.2017 15:00:00 16,4 13,5 52 28 S 1016,6 18 24
12.12.2017 14:00:00 16,4 13,8 44 24 S 1016,6 18 12
12.12.2017 13:00:00 16,4 13,8 39 21 S 1016,6 18 24
12.12.2017 12:00:00 16,6 13,7 31 17 S 1016,6 18 24
12.12.2017 11:00:00 16,4 13,2 37 20 S 1016,6 18 36
12.12.2017 10:00:00 16,0 13,1 52 28 S 1016,2 18 36
12.12.2017 09:00:00 15,4 13,1 34 18 SSE 1015,3 18 30
12.12.2017 08:00:00 15,2 13,2 48 26 S 1014,5 18 30
12.12.2017 07:00:00 15,2 12,9 41 22 S 1014,2 18 0
12.12.2017 06:00:00 - - - - - - - -
12.12.2017 05:00:00 - - - - - - - -
12.12.2017 04:00:00 - - - - - - - -
12.12.2017 03:00:00 - - - - - - - -
12.12.2017 02:00:00 - - - - - - - -
12.12.2017 01:00:00 - - - - - - - -
12.12.2017 00:00:00 - - - - - - - -
11.12.2017 23:00:00 - - - - - - - -
11.12.2017 22:00:00 - - - - - - - -
11.12.2017 21:00:00 - - - - - - - -
11.12.2017 20:00:00 - - - - - - - -
11.12.2017 19:00:00 15,0 12,7 42 23 S 1011,5 18 0
11.12.2017 18:00:00 15,0 12,7 39 21 S 1011,6 18 0
11.12.2017 17:00:00 15,0 11,3 41 22 S 1011,0 20 0
11.12.2017 16:00:00 15,2 12,6 70 38 S 1010,9 18 18
11.12.2017 15:00:00 15,4 13,1 48 26 S 1011,0 18 24
11.12.2017 14:00:00 16,0 12,4 57 31 SSE 1010,4 18 36
11.12.2017 13:00:00 16,0 12,7 61 33 SSE 1011,4 18 60
11.12.2017 12:00:00 15,8 13,2 67 36 SSE 1012,3 18 60
11.12.2017 11:00:00 16,0 14,1 41 22 SSE 1013,5 18 60
11.12.2017 10:00:00 14,8 11,8 37 20 S 1013,1 18 48
11.12.2017 09:00:00 13,8 11,4 55 30 S 1013,1 18 36
11.12.2017 08:00:00 12,6 7,9 41 22 S 1013,2 18 30
11.12.2017 07:00:00 12,6 8,7 41 22 SSE 1013,9 18 0
11.12.2017 06:00:00 - - - - - - - -
11.12.2017 05:00:00 - - - - - - - -
11.12.2017 04:00:00 - - - - - - - -
11.12.2017 03:00:00 - - - - - - - -
11.12.2017 02:00:00 - - - - - - - -
11.12.2017 01:00:00 - - - - - - - -
11.12.2017 00:00:00 - - - - - - - -
10.12.2017 23:00:00 - - - - - - - -
10.12.2017 22:00:00 - - - - - - - -
10.12.2017 21:00:00 - - - - - - - -
10.12.2017 20:00:00 - - - - - - - -
10.12.2017 19:00:00 - - - - - - - -
10.12.2017 18:00:00 11,0 7,9 21 11 SSO 1019,2 15 0
10.12.2017 17:00:00 11,4 8,1 21 11 SO 1019,5 15 12

tt = Temperatura
td = dewpoint
ff = velocità del vento
dd = direzione del vento
ppp = reduced air pressure
vv = visibility
sd = ore di luce

Stazioni seguenti

WeatherPro
AMSI
MeteoEarth